This is the latest recevied weather packets stored in our database for station/object OE-11331. If no packets are shown the sender has not sent any weather packets the latest 10 day(s).
| Time | Temp. | Humidity | Pressure | Rain* | Wind** | Luminosity | Snow |
|---|---|---|---|---|---|---|---|
| 1787920906 | 28.33° C | 55% | 1011.4 hPa | 0 mm | - | 368 W/m² | - |
| 1787920534 | 28.33° C | 55% | 1011.5 hPa | 0 mm | - | 465 W/m² | - |
| 1787919934 | 28.33° C | 57% | 1011.5 hPa | 0 mm | - | 444 W/m² | - |
| 1787919106 | 27.78° C | 55% | 1011.8 hPa | 0 mm | - | 390 W/m² | - |
| 1787918733 | 27.78° C | 55% | 1011.8 hPa | 0 mm | - | 465 W/m² | - |
| 1787918133 | 27.78° C | 56% | 1011.8 hPa | 0 mm | - | 628 W/m² | - |
| 1787917306 | 27.22° C | 57% | 1012.1 hPa | 0 mm | - | 703 W/m² | - |
| 1787916934 | 27.22° C | 58% | 1012 hPa | 0 mm | - | 747 W/m² | - |
| 1787916334 | 27.22° C | 59% | 1012.2 hPa | 0 mm | - | 703 W/m² | - |
| 1787915506 | 26.11° C | 60% | 1012.6 hPa | 0 mm | - | 671 W/m² | - |
| 1787915134 | 26.11° C | 62% | 1012.8 hPa | 0 mm | - | 747 W/m² | - |
| 1787914534 | 26.11° C | 66% | 1012.8 hPa | 0 mm | - | 671 W/m² | - |
| 1787913707 | 25.56° C | 65% | 1012.8 hPa | 0 mm | - | 714 W/m² | - |
| 1787913334 | 25° C | 65% | 1013.2 hPa | 0 mm | - | 714 W/m² | - |
| 1787912734 | 25° C | 69% | 1013.6 hPa | 0 mm | - | 563 W/m² | - |
| 1787911907 | 23.89° C | 70% | 1013.9 hPa | 0 mm | - | 400 W/m² | - |
| 1787911534 | 23.89° C | 71% | 1013.9 hPa | 0 mm | - | 422 W/m² | - |
| 1787910933 | 23.89° C | 71% | 1014.2 hPa | 0 mm | - | 476 W/m² | - |
| 1787910107 | 23.33° C | 72% | 1014.6 hPa | 0 mm | - | 346 W/m² | - |
| 1787909734 | 23.33° C | 74% | 1015.1 hPa | 0 mm | - | 357 W/m² | - |
| 1787909134 | 22.78° C | 76% | 1015.1 hPa | 0 mm | - | 400 W/m² | - |
| 1787908306 | 22.78° C | 76% | 1015.2 hPa | 0 mm | - | 379 W/m² | - |
| 1787907934 | 22.22° C | 76% | 1015.5 hPa | 0 mm | - | 346 W/m² | - |
| 1787907334 | 22.22° C | 76% | 1015.7 hPa | 0 mm | - | 292 W/m² | - |
| 1787906506 | 22.22° C | 79% | 1015.7 hPa | 0 mm | - | 227 W/m² | - |
* Rain latest hour (hover to see other rain measurements)
** Current wind speed in m/s (hover to see current wind gust speed)